Location: Newark
(30.1000°N, 109.4667°E)
Time: 11:32:20
(UTC+00:00)

SR - Pass Details

Date: 24 February 2020
Orbit: 578 x 878 km, 66.7° (Epoch: 06 April)

Event Time Altitude Azimuth Distance (km) Brightness Sun altitude
Rises 06:05:42 0° 177° (S) 3,389 ? 46.8°
Reaches altitude 10° 06:08:24 10° 167° (SSE) 2,484 ? 46.6°
Maximum altitude 06:13:23 30° 107° (ESE) 1,501 ? 46.1°
Drops below altitude 10° 06:18:27 10° 48° (NE) 2,525 ? 45.5°
Sets 06:21:12 0° 38° (NE) 3,454 ? 45.2°
